Time,TemperatureF,DewpointF,PressureIn,WindDirection,WindDirectionDegrees,WindSpeedMPH,WindSpeedGustMPH,Humidity,HourlyPrecipIn,Conditions,Clouds,dailyrainin,SoftwareType,DateUTC
2013-08-08 00:03:00,66.9,37.6,29.94,North,0,0.0,0.0,34,0.00,CLR,OVC,0.00,WeatherDisplay:10.37,2013-08-08 05:03:00,
2013-08-08 00:08:00,66.7,37.5,29.94,North,0,0.0,0.0,34,0.00,CLR,OVC,0.00,WeatherDisplay:10.37,2013-08-08 05:08:00,
2013-08-08 00:13:00,66.7,37.5,29.94,North,0,0.0,0.0,34,0.00,CLR,OVC,0.00,WeatherDisplay:10.37,2013-08-08 05:13:00,
2013-08-08 00:18:00,66.6,37.3,29.94,North,0,0.0,0.0,34,0.00,CLR,OVC,0.00,WeatherDisplay:10.37,2013-08-08 05:18:00,
2013-08-08 00:23:00,66.6,38.0,29.94,North,0,0.0,0.0,35,0.00,CLR,OVC,0.00,WeatherDisplay:10.37,2013-08-08 05:23:00,
2013-08-08 00:28:00,66.4,37.9,29.94,North,0,0.0,0.0,35,0.00,CLR,OVC,0.00,WeatherDisplay:10.37,2013-08-08 05:28:00,
2013-08-08 00:33:00,66.4,37.9,29.94,North,0,0.0,0.0,35,0.00,CLR,OVC,0.00,WeatherDisplay:10.37,2013-08-08 05:33:00,
2013-08-08 00:38:00,66.4,37.9,29.94,North,0,0.0,0.0,35,0.00,CLR,OVC,0.00,WeatherDisplay:10.37,2013-08-08 05:38:00,
2013-08-08 00:43:00,66.4,37.9,29.94,North,0,0.0,0.0,35,0.00,CLR,OVC,0.00,WeatherDisplay:10.37,2013-08-08 05:43:00,
2013-08-08 00:48:00,66.4,37.9,29.94,North,0,0.0,0.0,35,0.00,CLR,OVC,0.00,WeatherDisplay:10.37,2013-08-08 05:48:00,
2013-08-08 00:53:00,66.4,37.9,29.94,North,0,0.0,0.0,35,0.00,CLR,OVC,0.00,WeatherDisplay:10.37,2013-08-08 05:53:00,
2013-08-08 00:58:00,66.2,37.7,29.94,North,0,0.0,0.0,35,0.00,CLR,OVC,0.00,WeatherDisplay:10.37,2013-08-08 05:58:00,
2013-08-08 01:03:00,66.2,38.4,29.94,North,0,0.0,0.0,36,0.00,SCT,OVC,0.00,WeatherDisplay:10.37,2013-08-08 06:03:00,
2013-08-08 01:08:00,66.0,38.3,29.94,North,0,0.0,0.0,36,0.00,SCT,OVC,0.00,WeatherDisplay:10.37,2013-08-08 06:08:00,
2013-08-08 01:13:00,66.0,38.3,29.94,North,0,0.0,0.0,36,0.00,SCT,OVC,0.00,WeatherDisplay:10.37,2013-08-08 06:13:00,
2013-08-08 01:18:00,66.2,38.4,29.94,North,0,0.0,0.0,36,0.00,SCT,OVC,0.00,WeatherDisplay:10.37,2013-08-08 06:18:00,
2013-08-08 01:23:00,66.2,39.1,29.94,North,0,0.0,0.0,37,0.00,SCT,OVC,0.00,WeatherDisplay:10.37,2013-08-08 06:23:00,
2013-08-08 01:28:00,66.4,39.3,29.94,North,0,0.0,0.0,37,0.00,SCT,OVC,0.00,WeatherDisplay:10.37,2013-08-08 06:28:00,
2013-08-08 01:33:00,66.4,39.3,29.94,North,0,0.0,0.0,37,0.00,SCT,OVC,0.00,WeatherDisplay:10.37,2013-08-08 06:33:00,
2013-08-08 01:38:00,66.4,39.3,29.94,North,0,0.0,0.0,37,0.00,SCT,OVC,0.00,WeatherDisplay:10.37,2013-08-08 06:38:00,
2013-08-08 01:43:00,66.4,39.3,29.94,North,0,0.0,0.0,37,0.00,SCT,OVC,0.00,WeatherDisplay:10.37,2013-08-08 06:43:00,
2013-08-08 01:48:00,66.4,39.3,29.94,North,0,0.0,0.0,37,0.00,SCT,OVC,0.00,WeatherDisplay:10.37,2013-08-08 06:48:00,
2013-08-08 01:53:00,66.4,39.3,29.94,North,0,0.0,0.0,37,0.00,SCT,OVC,0.00,WeatherDisplay:10.37,2013-08-08 06:53:00,
2013-08-08 01:58:00,66.4,39.3,29.94,North,0,0.0,0.0,37,0.00,SCT,OVC,0.00,WeatherDisplay:10.37,2013-08-08 06:58:00,
2013-08-08 02:03:00,66.4,39.3,29.94,North,0,0.0,0.0,37,0.00,OVC,,0.00,WeatherDisplay:10.37,2013-08-08 07:03:00,
2013-08-08 02:08:00,66.2,39.1,29.94,North,0,0.0,0.0,37,0.00,OVC,,0.00,WeatherDisplay:10.37,2013-08-08 07:08:00,
2013-08-08 02:13:00,66.2,39.1,29.97,North,0,0.0,0.0,37,0.00,OVC,,0.00,WeatherDisplay:10.37,2013-08-08 07:13:00,
2013-08-08 02:18:00,66.2,39.1,29.97,North,0,0.0,0.0,37,0.00,OVC,,0.00,WeatherDisplay:10.37,2013-08-08 07:18:00,
2013-08-08 02:23:00,66.4,39.3,29.97,North,0,0.0,0.0,37,0.00,OVC,,0.00,WeatherDisplay:10.37,2013-08-08 07:23:00,
2013-08-08 02:28:00,66.4,39.3,29.97,North,0,0.0,0.0,37,0.00,OVC,,0.00,WeatherDisplay:10.37,2013-08-08 07:28:00,
2013-08-08 02:33:00,66.2,39.1,29.97,North,0,0.0,0.0,37,0.00,OVC,,0.00,WeatherDisplay:10.37,2013-08-08 07:33:00,
2013-08-08 02:38:00,66.2,39.1,29.97,North,0,0.0,0.0,37,0.00,OVC,,0.00,WeatherDisplay:10.37,2013-08-08 07:38:00,
2013-08-08 02:43:00,66.2,39.1,29.97,North,0,0.0,0.0,37,0.00,OVC,,0.00,WeatherDisplay:10.37,2013-08-08 07:43:00,
2013-08-08 02:48:00,66.0,39.0,29.97,North,0,0.0,0.0,37,0.00,OVC,,0.00,WeatherDisplay:10.37,2013-08-08 07:48:00,
2013-08-08 02:53:00,66.0,39.0,29.97,North,0,0.0,0.0,37,0.00,OVC,,0.00,WeatherDisplay:10.37,2013-08-08 07:53:00,
2013-08-08 02:58:00,65.8,38.8,29.94,North,0,0.0,0.0,37,0.00,OVC,,0.00,WeatherDisplay:10.37,2013-08-08 07:58:00,
2013-08-08 03:03:00,65.8,38.8,29.94,North,0,0.0,0.0,37,0.00,FEW,OVC,0.00,WeatherDisplay:10.37,2013-08-08 08:03:00,
2013-08-08 03:08:00,65.8,38.8,29.94,North,0,0.0,0.0,37,0.00,FEW,OVC,0.00,WeatherDisplay:10.37,2013-08-08 08:08:00,
2013-08-08 03:13:00,65.7,38.7,29.94,North,0,0.0,0.0,37,0.00,FEW,OVC,0.00,WeatherDisplay:10.37,2013-08-08 08:13:00,
2013-08-08 03:18:00,65.7,38.7,29.94,North,0,0.0,0.0,37,0.00,FEW,OVC,0.00,WeatherDisplay:10.37,2013-08-08 08:18:00,
2013-08-08 03:23:00,65.8,38.8,29.94,North,0,0.0,0.0,37,0.00,FEW,OVC,0.00,WeatherDisplay:10.37,2013-08-08 08:23:00,
2013-08-08 03:28:00,65.8,38.8,29.94,North,0,0.0,0.0,37,0.00,FEW,OVC,0.00,WeatherDisplay:10.37,2013-08-08 08:28:00,
2013-08-08 03:33:00,66.0,39.0,29.94,North,0,0.0,0.0,37,0.00,FEW,OVC,0.00,WeatherDisplay:10.37,2013-08-08 08:33:00,
2013-08-08 03:38:00,66.2,38.4,29.94,North,0,0.0,0.0,36,0.00,FEW,OVC,0.00,WeatherDisplay:10.37,2013-08-08 08:38:00,
2013-08-08 03:43:00,66.2,38.4,29.94,North,0,0.0,0.0,36,0.00,FEW,OVC,0.00,WeatherDisplay:10.37,2013-08-08 08:43:00,
2013-08-08 03:48:00,66.2,38.4,29.94,North,0,0.0,0.0,36,0.00,FEW,OVC,0.00,WeatherDisplay:10.37,2013-08-08 08:48:00,
2013-08-08 03:53:00,66.2,37.7,29.94,North,0,0.0,0.0,35,0.00,FEW,OVC,0.00,WeatherDisplay:10.37,2013-08-08 08:53:00,
2013-08-08 03:58:00,66.0,38.3,29.94,North,0,0.0,0.0,36,0.00,FEW,OVC,0.00,WeatherDisplay:10.37,2013-08-08 08:58:00,
2013-08-08 04:03:00,66.0,37.6,29.94,North,0,0.0,0.0,35,0.00,OVC,,0.00,WeatherDisplay:10.37,2013-08-08 09:03:00,
2013-08-08 04:08:00,65.8,37.4,29.94,North,0,0.0,0.0,35,0.00,OVC,,0.00,WeatherDisplay:10.37,2013-08-08 09:08:00,
2013-08-08 04:13:00,65.7,37.2,29.94,North,0,0.0,0.0,35,0.00,OVC,,0.00,WeatherDisplay:10.37,2013-08-08 09:13:00,
2013-08-08 04:18:00,65.3,37.6,29.94,North,0,0.0,0.0,36,0.00,OVC,,0.00,WeatherDisplay:10.37,2013-08-08 09:18:00,
2013-08-08 04:23:00,65.1,37.5,29.94,North,0,0.0,0.0,36,0.00,OVC,,0.00,WeatherDisplay:10.37,2013-08-08 09:23:00,
2013-08-08 04:28:00,65.1,37.5,29.94,North,0,0.0,0.0,36,0.00,OVC,,0.00,WeatherDisplay:10.37,2013-08-08 09:28:00,
2013-08-08 04:33:00,64.9,37.3,29.94,North,0,0.0,0.0,36,0.00,BKN,OVC,0.00,WeatherDisplay:10.37,2013-08-08 09:33:00,
2013-08-08 04:38:00,64.8,37.2,29.94,North,0,0.0,0.0,36,0.00,BKN,OVC,0.00,WeatherDisplay:10.37,2013-08-08 09:38:00,
2013-08-08 04:43:00,64.6,37.0,29.94,North,0,0.0,0.0,36,0.00,BKN,OVC,0.00,WeatherDisplay:10.37,2013-08-08 09:43:00,
2013-08-08 04:48:00,64.6,37.7,29.94,North,0,0.0,0.0,37,0.00,BKN,OVC,0.00,WeatherDisplay:10.37,2013-08-08 09:48:00,
2013-08-08 04:53:00,64.4,37.5,29.94,North,0,0.0,0.0,37,0.00,BKN,OVC,0.00,WeatherDisplay:10.37,2013-08-08 09:53:00,
2013-08-08 04:58:00,64.4,37.5,29.94,North,0,0.0,0.0,37,0.00,BKN,OVC,0.00,WeatherDisplay:10.37,2013-08-08 09:58:00,
2013-08-08 05:03:00,64.2,38.1,29.94,North,0,0.0,0.0,38,0.00,CLR,OVC,0.00,WeatherDisplay:10.37,2013-08-08 10:03:00,
2013-08-08 05:08:00,64.2,38.1,29.94,North,0,0.0,0.0,38,0.00,CLR,OVC,0.00,WeatherDisplay:10.37,2013-08-08 10:08:00,
2013-08-08 05:13:00,64.2,38.1,29.94,North,0,0.0,0.0,38,0.00,CLR,OVC,0.00,WeatherDisplay:10.37,2013-08-08 10:13:00,
2013-08-08 05:18:00,64.0,37.9,29.94,North,0,0.0,0.0,38,0.00,CLR,OVC,0.00,WeatherDisplay:10.37,2013-08-08 10:18:00,
2013-08-08 05:23:00,63.9,37.7,29.94,North,0,0.0,0.0,38,0.00,CLR,OVC,0.00,WeatherDisplay:10.37,2013-08-08 10:23:00,
2013-08-08 05:28:00,63.7,37.6,29.94,North,0,0.0,0.0,38,0.00,CLR,OVC,0.00,WeatherDisplay:10.37,2013-08-08 10:28:00,
2013-08-08 05:33:00,63.5,38.1,29.94,North,0,0.0,0.0,39,0.00,CLR,OVC,0.00,WeatherDisplay:10.37,2013-08-08 10:33:00,
2013-08-08 05:38:00,63.3,37.9,29.94,North,0,0.0,0.0,39,0.00,CLR,OVC,0.00,WeatherDisplay:10.37,2013-08-08 10:38:00,
2013-08-08 05:43:00,63.1,38.4,29.94,North,0,0.0,0.0,40,0.00,CLR,OVC,0.00,WeatherDisplay:10.37,2013-08-08 10:43:00,
2013-08-08 05:48:00,63.0,38.2,29.94,North,0,0.0,0.0,40,0.00,CLR,OVC,0.00,WeatherDisplay:10.37,2013-08-08 10:48:00,
2013-08-08 05:53:00,62.8,38.1,29.94,North,0,0.0,0.0,40,0.00,CLR,OVC,0.00,WeatherDisplay:10.37,2013-08-08 10:53:00,
2013-08-08 05:58:00,62.6,38.6,29.94,North,0,0.0,0.0,41,0.00,CLR,OVC,0.00,WeatherDisplay:10.37,2013-08-08 10:58:00,
2013-08-08 06:03:00,62.8,39.3,29.94,North,0,0.0,0.0,42,0.00,FEW,OVC,0.00,WeatherDisplay:10.37,2013-08-08 11:03:00,
2013-08-08 06:08:00,63.0,40.1,29.94,North,0,0.0,0.0,43,0.00,FEW,OVC,0.00,WeatherDisplay:10.37,2013-08-08 11:08:00,
2013-08-08 06:13:00,63.0,40.7,29.94,North,0,0.0,0.0,44,0.00,FEW,OVC,0.00,WeatherDisplay:10.37,2013-08-08 11:13:00,
2013-08-08 06:18:00,63.0,40.7,29.94,North,0,0.0,0.0,44,0.00,FEW,OVC,0.00,WeatherDisplay:10.37,2013-08-08 11:18:00,
2013-08-08 06:23:00,63.0,40.7,29.94,North,0,0.0,0.0,44,0.00,FEW,OVC,0.00,WeatherDisplay:10.37,2013-08-08 11:23:00,
2013-08-08 06:28:00,63.0,40.7,29.94,North,0,0.0,0.0,44,0.00,FEW,OVC,0.00,WeatherDisplay:10.37,2013-08-08 11:28:00,
2013-08-08 06:33:00,63.0,41.3,29.94,North,0,0.0,0.0,45,0.00,FEW,OVC,0.00,WeatherDisplay:10.37,2013-08-08 11:33:00,
2013-08-08 06:38:00,63.0,41.3,29.94,North,0,0.0,0.0,45,0.00,FEW,OVC,0.00,WeatherDisplay:10.37,2013-08-08 11:38:00,
2013-08-08 06:43:00,63.0,41.3,29.97,North,0,0.0,0.0,45,0.00,FEW,OVC,0.00,WeatherDisplay:10.37,2013-08-08 11:43:00,
2013-08-08 06:48:00,63.0,41.3,29.97,North,0,0.0,0.0,45,0.00,FEW,OVC,0.00,WeatherDisplay:10.37,2013-08-08 11:48:00,
2013-08-08 06:53:00,63.1,42.0,29.97,North,0,0.0,0.0,46,0.00,FEW,OVC,0.00,WeatherDisplay:10.37,2013-08-08 11:53:00,
2013-08-08 06:58:00,63.1,42.0,29.97,North,0,0.0,0.0,46,0.00,FEW,OVC,0.00,WeatherDisplay:10.37,2013-08-08 11:58:00,
2013-08-08 07:03:00,63.3,42.2,29.97,North,0,0.0,0.0,46,0.00,BKN,OVC,0.00,WeatherDisplay:10.37,2013-08-08 12:03:00,
2013-08-08 07:08:00,63.5,42.3,29.97,North,0,0.0,0.0,46,0.00,BKN,OVC,0.00,WeatherDisplay:10.37,2013-08-08 12:08:00,
2013-08-08 07:13:00,63.7,43.1,29.97,North,0,0.0,0.0,47,0.00,BKN,OVC,0.00,WeatherDisplay:10.37,2013-08-08 12:13:00,
2013-08-08 07:18:00,63.9,43.2,29.97,North,0,0.0,0.0,47,0.00,BKN,OVC,0.00,WeatherDisplay:10.37,2013-08-08 12:18:00,
2013-08-08 07:19:00,64.0,43.4,29.97,North,0,0.0,0.0,47,0.00,BKN,OVC,0.00,WeatherDisplay:10.37,2013-08-08 12:19:00,
2013-08-08 07:24:00,64.4,43.7,29.97,North,0,0.0,0.0,47,0.00,BKN,OVC,0.00,WeatherDisplay:10.37,2013-08-08 12:24:00,
2013-08-08 07:29:00,64.9,44.8,29.97,North,0,0.0,0.0,48,0.00,BKN,OVC,0.00,WeatherDisplay:10.37,2013-08-08 12:29:00,
2013-08-08 07:34:00,65.3,45.1,29.97,North,0,0.0,0.0,48,0.00,BKN,OVC,0.00,WeatherDisplay:10.37,2013-08-08 12:34:00,
2013-08-08 07:39:00,65.7,44.9,29.97,North,0,0.0,0.0,47,0.00,BKN,OVC,0.00,WeatherDisplay:10.37,2013-08-08 12:39:00,
2013-08-08 07:44:00,65.8,45.0,29.97,North,0,0.0,0.0,47,0.00,BKN,OVC,0.00,WeatherDisplay:10.37,2013-08-08 12:44:00,
2013-08-08 07:49:00,66.0,45.2,29.97,North,0,0.0,0.0,47,0.00,BKN,OVC,0.00,WeatherDisplay:10.37,2013-08-08 12:49:00,
2013-08-08 07:54:00,66.4,45.0,29.97,North,0,0.0,0.0,46,0.00,BKN,OVC,0.00,WeatherDisplay:10.37,2013-08-08 12:54:00,
2013-08-08 07:59:00,66.4,45.0,29.97,North,0,0.0,0.0,46,0.00,BKN,OVC,0.00,WeatherDisplay:10.37,2013-08-08 12:59:00,
2013-08-08 08:04:00,66.7,44.7,29.97,North,0,0.0,0.0,45,0.00,BKN,OVC,0.00,WeatherDisplay:10.37,2013-08-08 13:04:00,
2013-08-08 08:09:00,66.9,44.3,29.97,North,0,0.0,0.0,44,0.00,BKN,OVC,0.00,WeatherDisplay:10.37,2013-08-08 13:09:00,
2013-08-08 08:14:00,67.3,44.6,29.97,North,0,0.0,0.0,44,0.00,BKN,OVC,0.00,WeatherDisplay:10.37,2013-08-08 13:14:00,
2013-08-08 08:19:00,67.6,44.3,29.97,North,0,0.0,0.0,43,0.00,BKN,OVC,0.00,WeatherDisplay:10.37,2013-08-08 13:19:00,
2013-08-08 08:24:00,67.8,43.2,29.97,North,0,0.0,0.0,41,0.00,BKN,OVC,0.00,WeatherDisplay:10.37,2013-08-08 13:24:00,
2013-08-08 08:29:00,68.2,42.3,29.97,North,0,0.0,0.0,39,0.00,BKN,OVC,0.00,WeatherDisplay:10.37,2013-08-08 13:29:00,
2013-08-08 08:34:00,68.5,41.9,29.97,North,0,0.0,0.0,38,0.00,BKN,OVC,0.00,WeatherDisplay:10.37,2013-08-08 13:34:00,
2013-08-08 08:39:00,68.7,41.4,29.97,North,0,0.0,0.0,37,0.00,BKN,OVC,0.00,WeatherDisplay:10.37,2013-08-08 13:39:00,
2013-08-08 08:44:00,69.1,40.3,29.97,North,0,0.0,0.0,35,0.00,BKN,OVC,0.00,WeatherDisplay:10.37,2013-08-08 13:44:00,
2013-08-08 08:49:00,69.3,39.7,29.97,North,0,0.0,0.0,34,0.00,BKN,OVC,0.00,WeatherDisplay:10.37,2013-08-08 13:49:00,
2013-08-08 08:54:00,69.6,39.2,29.97,North,0,0.0,0.0,33,0.00,BKN,OVC,0.00,WeatherDisplay:10.37,2013-08-08 13:54:00,
2013-08-08 08:59:00,69.8,39.4,29.97,North,0,0.0,0.0,33,0.00,BKN,OVC,0.00,WeatherDisplay:10.37,2013-08-08 13:59:00,
2013-08-08 09:04:00,70.2,38.9,29.97,North,0,0.0,0.0,32,0.00,CLR,OVC,0.00,WeatherDisplay:10.37,2013-08-08 14:04:00,
2013-08-08 09:09:00,70.2,38.9,29.97,North,0,0.0,0.0,32,0.00,CLR,OVC,0.00,WeatherDisplay:10.37,2013-08-08 14:09:00,
2013-08-08 09:14:00,70.3,38.3,29.97,North,0,0.0,0.0,31,0.00,CLR,OVC,0.00,WeatherDisplay:10.37,2013-08-08 14:14:00,
2013-08-08 09:19:00,70.7,37.7,29.97,North,0,0.0,0.0,30,0.00,CLR,OVC,0.00,WeatherDisplay:10.37,2013-08-08 14:19:00,
2013-08-08 09:24:00,71.1,37.2,29.97,North,0,0.0,0.0,29,0.00,CLR,OVC,0.00,WeatherDisplay:10.37,2013-08-08 14:24:00,
2013-08-08 09:29:00,71.4,36.6,29.97,North,0,0.0,0.0,28,0.00,CLR,OVC,0.00,WeatherDisplay:10.37,2013-08-08 14:29:00,
2013-08-08 09:34:00,72.0,35.2,29.97,North,0,0.0,0.0,26,0.00,CLR,OVC,0.00,WeatherDisplay:10.37,2013-08-08 14:34:00,
2013-08-08 09:39:00,72.1,34.4,29.97,North,0,0.0,0.0,25,0.00,CLR,OVC,0.00,WeatherDisplay:10.37,2013-08-08 14:39:00,
2013-08-08 09:44:00,72.1,32.3,30.00,North,0,0.0,0.0,23,0.00,CLR,OVC,0.00,WeatherDisplay:10.37,2013-08-08 14:44:00,
2013-08-08 09:49:00,72.1,31.2,30.00,North,0,0.0,0.0,22,0.00,CLR,OVC,0.00,WeatherDisplay:10.37,2013-08-08 14:49:00,
2013-08-08 09:54:00,72.5,31.5,30.00,North,0,0.0,0.0,22,0.00,CLR,OVC,0.00,WeatherDisplay:10.37,2013-08-08 14:54:00,
2013-08-08 09:59:00,72.9,31.8,30.00,North,0,0.0,0.0,22,0.00,CLR,OVC,0.00,WeatherDisplay:10.37,2013-08-08 14:59:00,
2013-08-08 10:04:00,73.4,31.1,30.00,North,0,0.0,0.0,21,0.00,FEW,OVC,0.00,WeatherDisplay:10.37,2013-08-08 15:04:00,
2013-08-08 10:09:00,73.6,31.2,30.00,North,0,0.0,0.0,21,0.00,FEW,OVC,0.00,WeatherDisplay:10.37,2013-08-08 15:09:00,
2013-08-08 10:14:00,73.6,31.2,30.00,North,0,0.0,0.0,21,0.00,FEW,OVC,0.00,WeatherDisplay:10.37,2013-08-08 15:14:00,
2013-08-08 10:19:00,73.8,31.4,30.00,North,0,0.0,0.0,21,0.00,FEW,OVC,0.00,WeatherDisplay:10.37,2013-08-08 15:19:00,
2013-08-08 10:24:00,73.9,27.7,30.00,North,0,0.0,0.0,18,0.00,FEW,OVC,0.00,WeatherDisplay:10.37,2013-08-08 15:24:00,
2013-08-08 10:29:00,74.1,25.0,30.00,North,0,0.0,0.0,16,0.00,FEW,OVC,0.00,WeatherDisplay:10.37,2013-08-08 15:29:00,
2013-08-08 10:34:00,74.5,25.3,30.00,North,0,0.0,0.0,16,0.00,FEW,OVC,0.00,WeatherDisplay:10.37,2013-08-08 15:34:00,
2013-08-08 10:39:00,74.8,25.6,30.00,North,0,0.0,0.0,16,0.00,FEW,OVC,0.00,WeatherDisplay:10.37,2013-08-08 15:39:00,
2013-08-08 10:44:00,75.2,24.3,30.03,North,0,0.0,0.0,15,0.00,FEW,OVC,0.00,WeatherDisplay:10.37,2013-08-08 15:44:00,
2013-08-08 10:49:00,75.4,24.5,30.03,North,0,0.0,0.0,15,0.00,FEW,OVC,0.00,WeatherDisplay:10.37,2013-08-08 15:49:00,
2013-08-08 10:54:00,75.4,24.5,30.03,North,0,0.0,0.0,15,0.00,FEW,OVC,0.00,WeatherDisplay:10.37,2013-08-08 15:54:00,
2013-08-08 10:59:00,75.6,21.2,30.03,North,0,0.0,0.0,13,0.00,FEW,OVC,0.00,WeatherDisplay:10.37,2013-08-08 15:59:00,
2013-08-08 11:04:00,75.7,21.4,30.03,North,0,0.0,0.0,13,0.00,FEW,OVC,0.00,WeatherDisplay:10.37,2013-08-08 16:04:00,
2013-08-08 11:09:00,76.1,21.6,30.03,North,0,0.0,0.0,13,0.00,FEW,OVC,0.00,WeatherDisplay:10.37,2013-08-08 16:09:00,
2013-08-08 11:14:00,76.5,21.9,30.00,North,0,0.0,0.0,13,0.00,FEW,OVC,0.00,WeatherDisplay:10.37,2013-08-08 16:14:00,
2013-08-08 11:19:00,77.0,22.4,30.00,North,0,0.0,0.0,13,0.00,FEW,OVC,0.00,WeatherDisplay:10.37,2013-08-08 16:19:00,
2013-08-08 11:24:00,77.0,16.2,30.00,North,0,0.0,0.0,10,0.00,FEW,OVC,0.00,WeatherDisplay:10.37,2013-08-08 16:24:00,
2013-08-08 11:29:00,77.2,16.3,30.00,North,0,0.0,0.0,10,0.00,FEW,OVC,0.00,WeatherDisplay:10.37,2013-08-08 16:29:00,
2013-08-08 11:34:00,77.2,16.3,30.00,North,0,0.0,0.0,10,0.00,CLR,OVC,0.00,WeatherDisplay:10.37,2013-08-08 16:34:00,
2013-08-08 11:39:00,77.5,16.6,30.00,North,0,0.0,0.0,10,0.00,CLR,OVC,0.00,WeatherDisplay:10.37,2013-08-08 16:39:00,
2013-08-08 11:44:00,78.1,17.0,30.00,North,0,0.0,0.0,10,0.00,CLR,OVC,0.00,WeatherDisplay:10.37,2013-08-08 16:44:00,
2013-08-08 11:49:00,78.6,17.4,30.00,North,0,0.0,0.0,10,0.00,CLR,OVC,0.00,WeatherDisplay:10.37,2013-08-08 16:49:00,
2013-08-08 11:54:00,79.0,17.7,30.00,North,0,0.0,0.0,10,0.00,CLR,OVC,0.00,WeatherDisplay:10.37,2013-08-08 16:54:00,
2013-08-08 11:59:00,79.3,18.0,30.00,North,0,0.0,0.0,10,0.00,CLR,OVC,0.00,WeatherDisplay:10.37,2013-08-08 16:59:00,
2013-08-08 12:04:00,79.2,17.9,30.00,North,0,0.0,0.0,10,0.00,CLR,OVC,0.00,WeatherDisplay:10.37,2013-08-08 17:04:00,
2013-08-08 12:09:00,79.3,18.0,30.00,North,0,0.0,0.0,10,0.00,CLR,OVC,0.00,WeatherDisplay:10.37,2013-08-08 17:09:00,
2013-08-08 12:14:00,79.5,18.1,30.00,North,0,0.0,0.0,10,0.00,CLR,OVC,0.00,WeatherDisplay:10.37,2013-08-08 17:14:00,
2013-08-08 12:19:00,80.1,18.5,30.00,North,0,0.0,0.0,10,0.00,CLR,OVC,0.00,WeatherDisplay:10.37,2013-08-08 17:19:00,
2013-08-08 12:24:00,80.2,18.7,30.00,North,0,0.0,0.0,10,0.00,CLR,OVC,0.00,WeatherDisplay:10.37,2013-08-08 17:24:00,
2013-08-08 12:29:00,80.4,18.8,30.00,North,0,0.0,0.0,10,0.00,CLR,OVC,0.00,WeatherDisplay:10.37,2013-08-08 17:29:00,
2013-08-08 12:34:00,80.6,16.5,30.00,North,0,0.0,0.0,9,0.00,CLR,OVC,0.00,WeatherDisplay:10.37,2013-08-08 17:34:00,
2013-08-08 12:39:00,80.2,18.7,30.00,North,0,0.0,0.0,10,0.00,CLR,OVC,0.00,WeatherDisplay:10.37,2013-08-08 17:39:00,
2013-08-08 12:44:00,80.6,16.5,30.00,North,0,0.0,0.0,9,0.00,CLR,OVC,0.00,WeatherDisplay:10.37,2013-08-08 17:44:00,
2013-08-08 12:50:00,81.1,16.9,30.00,North,0,0.0,0.0,9,0.00,CLR,OVC,0.00,WeatherDisplay:10.37,2013-08-08 17:50:00,
2013-08-08 12:55:00,81.7,17.3,30.00,North,0,0.0,0.0,9,0.00,CLR,OVC,0.00,WeatherDisplay:10.37,2013-08-08 17:55:00,
2013-08-08 13:00:00,82.6,18.0,30.00,North,0,0.0,0.0,9,0.00,CLR,OVC,0.00,WeatherDisplay:10.37,2013-08-08 18:00:00,
2013-08-08 13:05:00,82.2,17.7,30.00,North,0,0.0,0.0,9,0.00,CLR,OVC,0.00,WeatherDisplay:10.37,2013-08-08 18:05:00,
2013-08-08 13:10:00,81.3,17.0,30.00,North,0,0.0,0.0,9,0.00,CLR,OVC,0.00,WeatherDisplay:10.37,2013-08-08 18:10:00,
2013-08-08 13:15:00,81.0,16.8,30.00,North,0,0.0,0.0,9,0.00,CLR,OVC,0.00,WeatherDisplay:10.37,2013-08-08 18:15:00,
2013-08-08 13:20:00,81.1,16.9,30.00,North,0,0.0,0.0,9,0.00,CLR,OVC,0.00,WeatherDisplay:10.37,2013-08-08 18:20:00,
2013-08-08 13:25:00,81.0,16.8,30.00,North,0,0.0,0.0,9,0.00,CLR,OVC,0.00,WeatherDisplay:10.37,2013-08-08 18:25:00,
2013-08-08 13:30:00,80.2,18.7,29.97,North,0,0.0,0.0,10,0.00,CLR,OVC,0.00,WeatherDisplay:10.37,2013-08-08 18:30:00,
2013-08-08 13:35:00,79.3,18.0,29.97,North,0,0.0,0.0,10,0.00,CLR,OVC,0.00,WeatherDisplay:10.37,2013-08-08 18:35:00,
2013-08-08 13:40:00,79.0,17.7,29.97,North,0,0.0,0.0,10,0.00,CLR,OVC,0.00,WeatherDisplay:10.37,2013-08-08 18:40:00,
2013-08-08 13:45:00,79.0,17.7,29.97,North,0,0.0,0.0,10,0.00,CLR,OVC,0.00,WeatherDisplay:10.37,2013-08-08 18:45:00,
2013-08-08 13:50:00,79.9,18.4,29.97,North,0,0.0,0.0,10,0.00,CLR,OVC,0.00,WeatherDisplay:10.37,2013-08-08 18:50:00,
2013-08-08 13:55:00,80.8,16.6,29.97,North,0,0.0,0.0,9,0.00,CLR,OVC,0.00,WeatherDisplay:10.37,2013-08-08 18:55:00,
2013-08-08 14:00:00,80.4,18.8,29.97,North,0,0.0,0.0,10,0.00,CLR,OVC,0.00,WeatherDisplay:10.37,2013-08-08 19:00:00,
2013-08-08 14:05:00,80.6,16.5,29.97,North,0,0.0,0.0,9,0.00,BKN,OVC,0.00,WeatherDisplay:10.37,2013-08-08 19:05:00,
2013-08-08 14:10:00,81.5,17.2,29.97,North,0,0.0,0.0,9,0.00,BKN,OVC,0.00,WeatherDisplay:10.37,2013-08-08 19:10:00,
2013-08-08 14:15:00,82.6,18.0,29.97,North,0,0.0,0.0,9,0.00,BKN,OVC,0.00,WeatherDisplay:10.37,2013-08-08 19:15:00,
2013-08-08 14:20:00,84.0,19.1,29.97,North,0,0.0,0.0,9,0.00,BKN,OVC,0.00,WeatherDisplay:10.37,2013-08-08 19:20:00,
2013-08-08 14:25:00,84.7,16.9,29.97,North,0,0.0,0.0,8,0.00,BKN,OVC,0.00,WeatherDisplay:10.37,2013-08-08 19:25:00,
2013-08-08 14:30:00,84.6,16.7,29.97,North,0,0.0,0.0,8,0.00,BKN,OVC,0.00,WeatherDisplay:10.37,2013-08-08 19:30:00,
2013-08-08 14:35:00,83.3,18.5,29.97,North,0,0.0,0.0,9,0.00,BKN,OVC,0.00,WeatherDisplay:10.37,2013-08-08 19:35:00,
2013-08-08 14:40:00,82.2,17.7,29.97,North,0,0.0,0.0,9,0.00,BKN,OVC,0.00,WeatherDisplay:10.37,2013-08-08 19:40:00,
2013-08-08 14:45:00,81.1,16.9,29.97,North,0,0.0,0.0,9,0.00,BKN,OVC,0.00,WeatherDisplay:10.37,2013-08-08 19:45:00,
2013-08-08 14:50:00,80.2,18.7,29.97,North,0,0.0,0.0,10,0.00,BKN,OVC,0.00,WeatherDisplay:10.37,2013-08-08 19:50:00,
2013-08-08 14:56:00,80.1,18.5,29.97,North,0,0.0,0.0,10,0.00,BKN,OVC,0.00,WeatherDisplay:10.37,2013-08-08 19:56:00,
2013-08-08 15:01:00,80.6,16.5,29.97,North,0,0.0,0.0,9,0.00,BKN,OVC,0.00,WeatherDisplay:10.37,2013-08-08 20:01:00,
2013-08-08 15:06:00,81.1,16.9,29.97,North,0,0.0,0.0,9,0.00,BKN,OVC,0.00,WeatherDisplay:10.37,2013-08-08 20:06:00,
2013-08-08 15:11:00,81.1,16.9,29.97,North,0,0.0,0.0,9,0.00,BKN,OVC,0.00,WeatherDisplay:10.37,2013-08-08 20:11:00,
2013-08-08 15:16:00,81.9,17.5,29.97,North,0,0.0,0.0,9,0.00,BKN,OVC,0.00,WeatherDisplay:10.37,2013-08-08 20:16:00,
2013-08-08 15:21:00,82.4,17.9,29.97,North,0,0.0,0.0,9,0.00,BKN,OVC,0.00,WeatherDisplay:10.37,2013-08-08 20:21:00,
2013-08-08 15:26:00,82.2,17.7,29.97,North,0,0.0,0.0,9,0.00,BKN,OVC,0.00,WeatherDisplay:10.37,2013-08-08 20:26:00,
2013-08-08 15:31:00,81.9,17.5,29.97,North,0,0.0,0.0,9,0.00,BKN,OVC,0.00,WeatherDisplay:10.37,2013-08-08 20:31:00,
2013-08-08 15:36:00,82.0,17.6,29.97,North,0,0.0,0.0,9,0.00,BKN,OVC,0.00,WeatherDisplay:10.37,2013-08-08 20:36:00,
2013-08-08 15:41:00,82.0,17.6,29.97,North,0,0.0,0.0,9,0.00,BKN,OVC,0.00,WeatherDisplay:10.37,2013-08-08 20:41:00,
2013-08-08 15:46:00,82.8,18.1,29.97,North,0,0.0,0.0,9,0.00,BKN,OVC,0.00,WeatherDisplay:10.37,2013-08-08 20:46:00,
2013-08-08 15:51:00,82.4,17.9,29.97,North,0,0.0,0.0,9,0.00,BKN,OVC,0.00,WeatherDisplay:10.37,2013-08-08 20:51:00,
2013-08-08 15:56:00,82.6,18.0,29.97,North,0,0.0,0.0,9,0.00,BKN,OVC,0.00,WeatherDisplay:10.37,2013-08-08 20:56:00,
2013-08-08 16:01:00,82.8,8.9,29.97,North,0,0.0,0.0,6,0.00,SCT,OVC,0.00,WeatherDisplay:10.37,2013-08-08 21:01:00,
2013-08-08 16:06:00,83.3,9.3,29.97,North,0,0.0,0.0,6,0.00,SCT,OVC,0.00,WeatherDisplay:10.37,2013-08-08 21:06:00,
2013-08-08 16:11:00,82.8,8.9,29.97,North,0,0.0,0.0,6,0.00,SCT,OVC,0.00,WeatherDisplay:10.37,2013-08-08 21:11:00,
2013-08-08 16:16:00,82.6,8.8,29.97,North,0,0.0,0.0,6,0.00,SCT,OVC,0.00,WeatherDisplay:10.37,2013-08-08 21:16:00,
2013-08-08 16:21:00,82.8,8.9,29.97,North,0,0.0,0.0,6,0.00,SCT,OVC,0.00,WeatherDisplay:10.37,2013-08-08 21:21:00,
2013-08-08 16:26:00,82.8,8.9,29.97,North,0,0.0,0.0,6,0.00,SCT,OVC,0.00,WeatherDisplay:10.37,2013-08-08 21:26:00,
2013-08-08 16:31:00,82.8,8.9,29.97,North,0,0.0,0.0,6,0.00,SCT,OVC,0.00,WeatherDisplay:10.37,2013-08-08 21:31:00,
2013-08-08 16:36:00,82.4,8.6,29.97,North,0,0.0,0.0,6,0.00,SCT,OVC,0.00,WeatherDisplay:10.37,2013-08-08 21:36:00,
2013-08-08 16:41:00,81.7,11.6,29.97,North,0,0.0,0.0,7,0.00,SCT,OVC,0.00,WeatherDisplay:10.37,2013-08-08 21:41:00,
2013-08-08 16:46:00,80.8,10.9,29.97,North,0,0.0,0.0,7,0.00,SCT,OVC,0.00,WeatherDisplay:10.37,2013-08-08 21:46:00,
2013-08-08 16:51:00,80.2,18.7,29.97,North,0,0.0,0.0,10,0.00,SCT,OVC,0.00,WeatherDisplay:10.37,2013-08-08 21:51:00,
2013-08-08 16:56:00,80.2,18.7,29.97,North,0,0.0,0.0,10,0.00,SCT,OVC,0.00,WeatherDisplay:10.37,2013-08-08 21:56:00,
2013-08-08 17:01:00,80.2,18.7,29.97,North,0,0.0,0.0,10,0.00,FEW,OVC,0.00,WeatherDisplay:10.37,2013-08-08 22:01:00,
2013-08-08 17:06:00,80.1,18.5,29.97,North,0,0.0,0.0,10,0.00,FEW,OVC,0.00,WeatherDisplay:10.37,2013-08-08 22:06:00,
2013-08-08 17:12:00,79.3,18.0,29.97,North,0,0.0,0.0,10,0.00,FEW,OVC,0.00,WeatherDisplay:10.37,2013-08-08 22:12:00,
2013-08-08 17:17:00,79.0,17.7,29.97,North,0,0.0,0.0,10,0.00,FEW,OVC,0.00,WeatherDisplay:10.37,2013-08-08 22:17:00,
2013-08-08 17:22:00,78.8,17.6,29.97,North,0,0.0,0.0,10,0.00,FEW,OVC,0.00,WeatherDisplay:10.37,2013-08-08 22:22:00,
2013-08-08 17:27:00,78.6,17.4,29.97,North,0,0.0,0.0,10,0.00,FEW,OVC,0.00,WeatherDisplay:10.37,2013-08-08 22:27:00,
2013-08-08 17:32:00,78.3,17.2,29.97,North,0,0.0,0.0,10,0.00,FEW,OVC,0.00,WeatherDisplay:10.37,2013-08-08 22:32:00,
2013-08-08 17:37:00,78.1,17.0,29.97,North,0,0.0,0.0,10,0.00,FEW,OVC,0.00,WeatherDisplay:10.37,2013-08-08 22:37:00,
2013-08-08 17:42:00,77.9,16.9,29.97,North,0,0.0,0.0,10,0.00,FEW,OVC,0.00,WeatherDisplay:10.37,2013-08-08 22:42:00,
2013-08-08 17:47:00,77.7,16.8,29.97,North,0,0.0,0.0,10,0.00,FEW,OVC,0.00,WeatherDisplay:10.37,2013-08-08 22:47:00,
2013-08-08 17:52:00,77.7,16.8,29.97,North,0,0.0,0.0,10,0.00,FEW,OVC,0.00,WeatherDisplay:10.37,2013-08-08 22:52:00,
2013-08-08 17:57:00,77.7,16.8,29.97,North,0,0.0,0.0,10,0.00,FEW,OVC,0.00,WeatherDisplay:10.37,2013-08-08 22:57:00,
2013-08-08 18:02:00,77.5,16.6,29.97,North,0,0.0,0.0,10,0.00,FEW,OVC,0.00,WeatherDisplay:10.37,2013-08-08 23:02:00,
2013-08-08 18:07:00,77.4,16.5,29.97,North,0,0.0,0.0,10,0.00,FEW,OVC,0.00,WeatherDisplay:10.37,2013-08-08 23:07:00,
2013-08-08 18:13:00,76.8,22.2,29.97,North,0,0.0,0.0,13,0.00,FEW,OVC,0.00,WeatherDisplay:10.37,2013-08-08 23:13:00,
2013-08-08 18:18:00,76.6,22.1,29.97,North,0,0.0,0.0,13,0.00,FEW,OVC,0.00,WeatherDisplay:10.37,2013-08-08 23:18:00,
2013-08-08 18:23:00,76.3,21.8,29.97,North,0,0.0,0.0,13,0.00,FEW,OVC,0.00,WeatherDisplay:10.37,2013-08-08 23:23:00,
2013-08-08 18:28:00,75.9,21.5,29.97,North,0,0.0,0.0,13,0.00,FEW,OVC,0.00,WeatherDisplay:10.37,2013-08-08 23:28:00,
2013-08-08 18:33:00,75.7,21.4,29.97,North,0,0.0,0.0,13,0.00,FEW,OVC,0.00,WeatherDisplay:10.37,2013-08-08 23:33:00,
2013-08-08 18:39:00,75.6,21.2,29.97,North,0,0.0,0.0,13,0.00,FEW,OVC,0.00,WeatherDisplay:10.37,2013-08-08 23:39:00,
2013-08-08 18:44:00,75.4,21.1,29.97,North,0,0.0,0.0,13,0.00,FEW,OVC,0.00,WeatherDisplay:10.37,2013-08-08 23:44:00,
2013-08-08 18:49:00,75.4,21.1,29.97,North,0,0.0,0.0,13,0.00,FEW,OVC,0.00,WeatherDisplay:10.37,2013-08-08 23:49:00,
2013-08-08 18:54:00,75.2,20.9,29.97,North,0,0.0,0.0,13,0.00,FEW,OVC,0.00,WeatherDisplay:10.37,2013-08-08 23:54:00,
2013-08-08 18:59:00,75.2,20.9,29.97,North,0,0.0,0.0,13,0.00,FEW,OVC,0.00,WeatherDisplay:10.37,2013-08-08 23:59:00,
2013-08-08 19:04:00,75.0,25.7,29.97,North,0,0.0,0.0,16,0.00,FEW,OVC,0.00,WeatherDisplay:10.37,2013-08-09 00:04:00,
2013-08-08 19:09:00,74.8,25.6,29.97,North,0,0.0,0.0,16,0.00,FEW,OVC,0.00,WeatherDisplay:10.37,2013-08-09 00:09:00,
2013-08-08 19:15:00,74.7,25.5,29.97,North,0,0.0,0.0,16,0.00,FEW,OVC,0.00,WeatherDisplay:10.37,2013-08-09 00:15:00,
2013-08-08 19:20:00,74.1,27.9,29.97,North,0,0.0,0.0,18,0.00,FEW,OVC,0.00,WeatherDisplay:10.37,2013-08-09 00:20:00,
2013-08-08 19:25:00,73.9,27.7,29.97,North,0,0.0,0.0,18,0.00,FEW,OVC,0.00,WeatherDisplay:10.37,2013-08-09 00:25:00,
2013-08-08 19:30:00,73.8,31.4,29.97,North,0,0.0,0.0,21,0.00,FEW,OVC,0.00,WeatherDisplay:10.37,2013-08-09 00:30:00,
2013-08-08 19:35:00,73.6,31.2,29.97,North,0,0.0,0.0,21,0.00,FEW,OVC,0.00,WeatherDisplay:10.37,2013-08-09 00:35:00,
2013-08-08 19:40:00,73.6,31.2,29.97,North,0,0.0,0.0,21,0.00,FEW,OVC,0.00,WeatherDisplay:10.37,2013-08-09 00:40:00,
2013-08-08 19:45:00,73.4,31.1,29.97,North,0,0.0,0.0,21,0.00,FEW,OVC,0.00,WeatherDisplay:10.37,2013-08-09 00:45:00,
2013-08-08 19:50:00,73.4,31.1,29.97,North,0,0.0,0.0,21,0.00,FEW,OVC,0.00,WeatherDisplay:10.37,2013-08-09 00:50:00,
2013-08-08 19:55:00,73.4,31.1,29.97,North,0,0.0,0.0,21,0.00,FEW,OVC,0.00,WeatherDisplay:10.37,2013-08-09 00:55:00,
2013-08-08 20:00:00,73.4,31.1,29.97,North,0,0.0,0.0,21,0.00,FEW,OVC,0.00,WeatherDisplay:10.37,2013-08-09 01:00:00,
2013-08-08 20:05:00,73.2,32.1,29.97,North,0,0.0,0.0,22,0.00,CLR,OVC,0.00,WeatherDisplay:10.37,2013-08-09 01:05:00,
2013-08-08 20:10:00,73.0,31.9,29.97,North,0,0.0,0.0,22,0.00,CLR,OVC,0.00,WeatherDisplay:10.37,2013-08-09 01:10:00,
2013-08-08 20:15:00,72.7,31.6,29.97,North,0,0.0,0.0,22,0.00,CLR,OVC,0.00,WeatherDisplay:10.37,2013-08-09 01:15:00,
2013-08-08 20:21:00,72.5,32.6,29.97,North,0,0.0,0.0,23,0.00,CLR,OVC,0.00,WeatherDisplay:10.37,2013-08-09 01:21:00,
2013-08-08 20:26:00,72.3,32.4,29.97,North,0,0.0,0.0,23,0.00,CLR,OVC,0.00,WeatherDisplay:10.37,2013-08-09 01:26:00,
2013-08-08 20:31:00,72.1,32.3,29.97,North,0,0.0,0.0,23,0.00,CLR,OVC,0.00,WeatherDisplay:10.37,2013-08-09 01:31:00,
2013-08-08 20:36:00,72.1,32.3,29.97,North,0,0.0,0.0,23,0.00,CLR,OVC,0.00,WeatherDisplay:10.37,2013-08-09 01:36:00,
2013-08-08 20:41:00,72.1,32.3,29.97,North,0,0.0,0.0,23,0.00,CLR,OVC,0.00,WeatherDisplay:10.37,2013-08-09 01:41:00,
2013-08-08 20:46:00,72.0,33.2,29.97,North,0,0.0,0.0,24,0.00,CLR,OVC,0.00,WeatherDisplay:10.37,2013-08-09 01:46:00,
2013-08-08 20:51:00,71.8,33.0,29.97,North,0,0.0,0.0,24,0.00,CLR,OVC,0.00,WeatherDisplay:10.37,2013-08-09 01:51:00,
2013-08-08 20:56:00,71.8,33.0,29.97,North,0,0.0,0.0,24,0.00,CLR,OVC,0.00,WeatherDisplay:10.37,2013-08-09 01:56:00,
2013-08-08 21:01:00,71.6,33.9,29.94,North,0,0.0,0.0,25,0.00,CLR,OVC,0.00,WeatherDisplay:10.37,2013-08-09 02:01:00,
2013-08-08 21:06:00,71.6,34.9,29.94,North,0,0.0,0.0,26,0.00,CLR,OVC,0.00,WeatherDisplay:10.37,2013-08-09 02:06:00,
2013-08-08 21:11:00,71.6,34.9,29.94,North,0,0.0,0.0,26,0.00,CLR,OVC,0.00,WeatherDisplay:10.37,2013-08-09 02:11:00,
2013-08-08 21:16:00,71.4,35.7,29.94,North,0,0.0,0.0,27,0.00,CLR,OVC,0.00,WeatherDisplay:10.37,2013-08-09 02:16:00,
2013-08-08 21:21:00,71.4,36.6,29.94,North,0,0.0,0.0,28,0.00,CLR,OVC,0.00,WeatherDisplay:10.37,2013-08-09 02:21:00,
2013-08-08 21:26:00,71.2,36.4,29.94,North,0,0.0,0.0,28,0.00,CLR,OVC,0.00,WeatherDisplay:10.37,2013-08-09 02:26:00,
2013-08-08 21:31:00,71.1,37.2,29.97,North,0,0.0,0.0,29,0.00,CLR,OVC,0.00,WeatherDisplay:10.37,2013-08-09 02:31:00,
2013-08-08 21:36:00,70.9,37.0,29.97,North,0,0.0,0.0,29,0.00,CLR,OVC,0.00,WeatherDisplay:10.37,2013-08-09 02:36:00,
2013-08-08 21:41:00,70.7,37.7,29.97,North,0,0.0,0.0,30,0.00,CLR,OVC,0.00,WeatherDisplay:10.37,2013-08-09 02:41:00,
2013-08-08 21:46:00,70.7,38.6,29.97,North,0,0.0,0.0,31,0.00,CLR,OVC,0.00,WeatherDisplay:10.37,2013-08-09 02:46:00,
2013-08-08 21:52:00,70.5,38.4,29.97,North,0,0.0,0.0,31,0.00,CLR,OVC,0.00,WeatherDisplay:10.37,2013-08-09 02:52:00,
2013-08-08 21:57:00,70.3,39.1,29.97,North,0,0.0,0.0,32,0.00,CLR,OVC,0.00,WeatherDisplay:10.37,2013-08-09 02:57:00,
2013-08-08 22:02:00,70.2,38.9,29.97,North,0,0.0,0.0,32,0.00,CLR,OVC,0.00,WeatherDisplay:10.37,2013-08-09 03:02:00,
2013-08-08 22:07:00,70.0,38.8,29.97,North,0,0.0,0.0,32,0.00,CLR,OVC,0.00,WeatherDisplay:10.37,2013-08-09 03:07:00,
2013-08-08 22:12:00,69.8,38.6,29.97,North,0,0.0,0.0,32,0.00,CLR,OVC,0.00,WeatherDisplay:10.37,2013-08-09 03:12:00,
2013-08-08 22:17:00,69.6,38.4,29.97,North,0,0.0,0.0,32,0.00,CLR,OVC,0.00,WeatherDisplay:10.37,2013-08-09 03:17:00,
2013-08-08 22:22:00,69.4,39.1,29.97,North,0,0.0,0.0,33,0.00,CLR,OVC,0.00,WeatherDisplay:10.37,2013-08-09 03:22:00,
2013-08-08 22:27:00,69.3,38.9,29.97,North,0,0.0,0.0,33,0.00,CLR,OVC,0.00,WeatherDisplay:10.37,2013-08-09 03:27:00,
2013-08-08 22:32:00,69.1,38.8,29.97,North,0,0.0,0.0,33,0.00,CLR,OVC,0.00,WeatherDisplay:10.37,2013-08-09 03:32:00,
2013-08-08 22:37:00,68.9,38.6,29.97,North,0,0.0,0.0,33,0.00,CLR,OVC,0.00,WeatherDisplay:10.37,2013-08-09 03:37:00,
2013-08-08 22:42:00,68.9,38.6,29.97,North,0,0.0,0.0,33,0.00,CLR,OVC,0.00,WeatherDisplay:10.37,2013-08-09 03:42:00,
2013-08-08 22:47:00,68.7,38.4,29.97,North,0,0.0,0.0,33,0.00,CLR,OVC,0.00,WeatherDisplay:10.37,2013-08-09 03:47:00,
2013-08-08 22:52:00,68.7,38.4,29.97,North,0,0.0,0.0,33,0.00,CLR,OVC,0.00,WeatherDisplay:10.37,2013-08-09 03:52:00,
2013-08-08 22:57:00,68.5,39.0,29.97,North,0,0.0,0.0,34,0.00,CLR,OVC,0.00,WeatherDisplay:10.37,2013-08-09 03:57:00,
2013-08-08 23:01:00,68.5,39.0,29.97,North,0,0.0,0.0,34,0.00,CLR,OVC,0.00,WeatherDisplay:10.37,2013-08-09 04:01:00,
2013-08-08 23:02:00,68.5,39.0,29.97,North,0,0.0,0.0,34,0.00,CLR,OVC,0.00,WeatherDisplay:10.37,2013-08-09 04:02:00,
2013-08-08 23:03:00,68.5,39.0,29.97,North,0,0.0,0.0,34,0.00,CLR,OVC,0.00,WeatherDisplay:10.37,2013-08-09 04:03:00,
2013-08-08 23:04:00,68.5,39.0,29.97,North,0,0.0,0.0,34,0.00,CLR,OVC,0.00,WeatherDisplay:10.37,2013-08-09 04:04:00,
2013-08-08 23:09:00,68.5,39.0,29.97,North,0,0.0,0.0,34,0.00,CLR,OVC,0.00,WeatherDisplay:10.37,2013-08-09 04:09:00,
2013-08-08 23:14:00,68.4,38.9,29.97,North,0,0.0,0.0,34,0.00,CLR,OVC,0.00,WeatherDisplay:10.37,2013-08-09 04:14:00,
2013-08-08 23:19:00,68.2,38.7,29.97,North,0,0.0,0.0,34,0.00,CLR,OVC,0.00,WeatherDisplay:10.37,2013-08-09 04:19:00,
2013-08-08 23:24:00,68.0,38.6,29.97,North,0,0.0,0.0,34,0.00,CLR,OVC,0.00,WeatherDisplay:10.37,2013-08-09 04:24:00,
2013-08-08 23:29:00,68.0,39.3,29.97,North,0,0.0,0.0,35,0.00,CLR,OVC,0.00,WeatherDisplay:10.37,2013-08-09 04:29:00,
2013-08-08 23:34:00,67.8,39.2,29.97,North,0,0.0,0.0,35,0.00,CLR,OVC,0.00,WeatherDisplay:10.37,2013-08-09 04:34:00,
2013-08-08 23:39:00,67.6,39.0,29.97,North,0,0.0,0.0,35,0.00,CLR,OVC,0.00,WeatherDisplay:10.37,2013-08-09 04:39:00,
2013-08-08 23:44:00,67.6,39.7,29.97,North,0,0.0,0.0,36,0.00,CLR,OVC,0.00,WeatherDisplay:10.37,2013-08-09 04:44:00,
2013-08-08 23:49:00,67.5,39.6,29.97,North,0,0.0,0.0,36,0.00,CLR,OVC,0.00,WeatherDisplay:10.37,2013-08-09 04:49:00,
2013-08-08 23:54:00,67.5,39.6,29.97,North,0,0.0,0.0,36,0.00,CLR,OVC,0.00,WeatherDisplay:10.37,2013-08-09 04:54:00,
2013-08-08 23:59:00,67.3,39.4,29.97,North,0,0.0,0.0,36,0.00,CLR,OVC,0.00,WeatherDisplay:10.37,2013-08-09 04:59:00,